Temp
29 27 26 26 27 28 29 29 29 30 31 30 30 28 28 27 27 32 34 35 36 34 33 34 34 34 32 32 33 33 32 32 31 31 30 30 30 29 29 29 29 29 29 29 29 29 29 29 28 28 27 27 26 26 25 25 25 25 25 24 24 24 24 24 24 24 24 24 24 25 25 25 25 25 25 25 25 25 25 25 26 25 25 25 25 25
29 26 26 28 29 30 30 30 30 30 31 31 29 28 27 27 28 33 35 35 36 33 32 34 34 34 33 32 33 33 32 32 31 31 31 30 30 29 29 29 29 29 29 29 29 29 29 29 29 28 28 27 26 26 26 25 25 25 25 25 24 24 24 24 24 24 24 24 25 25 25 25 25 25 25 25 25 25 25 25 26 26 25 25 25 25
27 26 27 29 29 30 30 30 30 30 31 30 29 27 25 27 29 32 34 35 36 33 32 34 33 33 33 33 33 33 32 32 32 32 31 31 30 29 29 29 29 29 29 29 29 29 29 29 29 28 28 27 27 26 26 25 25 25 25 25 24 24 24 24 24 24 24 25 25 25 25 25 25 25 25 25 25 25 25 25 26 26 26 25 25 25
24 26 29 30 30 30 30 30 30 30 30 29 29 26 24 28 28 27 31 35 36 35 34 34 33 33 34 33 33 33 33 33 32 32 32 31 31 30 29 29 29 29 29 29 29 29 29 29 29 29 28 28 27 27 26 26 25 25 25 25 25 24 24 24 24 24 24 25 25 25 25 25 25 25 25 25 25 25 25 26 26 26 26 25 25 25
25 28 30 30 30 30 29 30 30 29 28 29 29 27 26 29 29 27 31 34 34 35 36 34 28 29 32 32 32 33 33 33 33 32 32 32 31 30 30 30 30 29 29 29 29 29 29 29 29 29 28 28 27 27 26 26 26 25 25 25 25 25 24 24 24 24 24 25 25 25 25 25 25 25 25 25 25 25 25 26 26 26 26 26 25 25
27 29 30 29 30 30 29 29 30 28 26 26 29 30 29 30 31 31 32 32 28 27 34 33 24 24 31 31 32 33 32 32 32 32 32 31 31 31 30 30 30 30 30 30 30 30 30 29 29 29 28 28 27 27 27 26 26 26 26 25 25 25 25 25 25 24 24 25 25 25 25 25 25 25 25 25 25 25 25 26 26 26 26 26 25 25
28 30 30 29 29 30 29 29 30 30 26 24 29 32 31 32 31 30 31 29 24 24 33 35 25 23 27 29 32 32 32 32 32 32 32 31 31 31 30 30 30 30 30 30 30 30 30 29 29 29 28 28 27 27 27 27 26 26 26 26 25 25 25 25 25 24 24 24 24 25 25 25 25 25 25 25 25 25 25 26 26 26 26 26 25 25
30 30 29 30 29 29 28 28 30 31 26 25 30 33 32 32 31 30 30 27 26 27 31 34 30 24 23 28 32 33 32 32 32 32 32 31 31 31 31 30 30 30 30 30 30 30 30 30 29 29 29 28 28 27 27 27 27 26 26 26 25 25 25 25 25 24 24 24 24 25 25 25 25 25 25 25 25 25 26 25 26 26 26 25 25 25
30 29 29 30 29 28 28 29 31 31 28 28 32 33 32 32 32 31 30 27 28 27 24 28 30 25 22 28 33 33 31 31 31 32 31 31 31 31 31 31 31 30 30 30 30 30 30 30 29 29 29 29 28 27 27 27 27 26 26 26 25 25 25 25 25 24 24 24 24 24 24 24 24 25 25 25 25 25 25 25 25 26 25 25 25 25
31 30 30 30 29 28 29 31 31 31 30 31 33 33 33 33 33 32 30 27 26 25 22 24 27 24 22 26 30 30 29 30 31 32 32 31 31 31 31 31 31 30 30 30 30 31 30 30 30 29 29 29 28 28 27 27 27 26 26 26 25 25 25 25 25 24 24 24 24 24 24 24 24 24 24 25 25 25 25 25 25 25 25 25 25 25
31 31 31 31 30 30 31 31 31 31 32 32 33 32 31 32 32 31 30 27 24 22 23 24 27 26 23 25 28 29 30 31 32 32 32 32 31 31 31 31 31 31 30 30 30 30 30 30 30 30 29 29 28 28 27 27 27 26 26 26 25 25 25 25 25 24 24 24 24 24 24 24 24 24 24 25 25 25 25 25 25 25 25 25 25 25
31 30 31 31 32 32 32 31 32 32 32 32 32 31 27 27 28 27 26 25 23 22 23 26 28 26 22 24 30 33 34 34 33 32 32 32 31 31 31 31 31 31 30 30 30 30 30 30 30 29 29 29 28 28 27 27 26 26 26 26 25 25 25 25 25 24 24 24 24 24 24 24 24 24 24 25 25 25 25 25 25 25 25 25 25 25
29 30 31 32 32 32 31 30 30 31 32 32 31 27 23 23 23 23 22 23 22 22 25 27 27 25 23 28 34 36 36 34 33 33 33 32 32 31 31 31 31 31 30 30 30 30 30 30 30 29 29 29 28 27 27 27 27 26 26 26 25 25 25 25 25 24 24 24 24 24 24 24 24 24 25 25 25 25 25 25 25 25 25 25 25 25
25 29 31 31 31 32 32 29 26 28 30 30 28 25 22 22 22 22 22 22 22 23 26 28 27 24 24 30 36 37 37 35 34 34 33 33 32 32 31 31 31 31 30 30 30 30 30 30 30 29 29 28 28 27 27 27 27 26 26 25 25 25 25 25 25 24 24 24 24 24 24 24 24 25 25 25 25 25 25 25 25 25 25 25 25 25
22 24 28 30 30 32 32 31 29 29 30 30 31 28 24 23 22 22 22 22 22 23 24 27 26 23 23 30 36 38 38 36 34 33 34 33 33 32 32 32 31 31 31 30 30 30 30 30 29 29 29 29 28 27 27 27 27 26 26 25 25 25 25 25 25 24 24 24 24 24 24 24 24 24 25 25 25 25 25 25 26 26 26 25 25 25
22 22 29 31 31 33 33 32 33 32 29 30 33 29 24 26 26 23 23 23 23 23 24 24 24 26 29 34 37 37 37 36 34 33 34 33 33 32 32 32 31 31 31 30 30 30 30 30 29 29 29 29 28 28 27 27 27 26 26 26 25 25 25 25 25 24 24 24 24 24 24 24 24 24 25 25 25 25 25 25 26 26 26 26 26 26
22 23 30 32 31 33 33 33 34 32 28 29 29 26 28 32 30 24 22 24 24 22 23 23 24 27 30 33 36 36 36 36 34 33 33 33 33 32 31 32 31 31 31 30 30 30 30 30 29 29 29 29 29 28 28 27 27 27 26 26 26 25 25 25 25 24 24 24 24 24 24 24 24 24 24 25 25 25 25 25 26 26 26 26 26 26
22 22 28 32 31 32 33 33 34 34 32 29 26 28 32 33 32 27 23 23 23 22 23 23 23 25 25 27 34 37 36 36 34 32 33 33 32 32 32 32 31 31 31 31 30 30 30 30 29 29 30 29 29 28 28 28 27 27 26 26 26 25 25 25 25 25 24 24 24 24 24 24 24 24 24 25 25 25 25 25 25 26 26 26 26 26
21 21 25 30 31 32 34 32 31 33 35 32 30 32 32 26 25 25 23 22 22 22 23 23 23 24 23 25 31 35 36 37 35 32 32 33 32 32 32 32 32 32 31 31 30 30 30 30 29 30 30 30 29 29 28 28 27 27 27 26 26 26 26 25 25 25 24 24 24 24 24 24 24 24 24 24 25 25 25 25 25 25 26 26 26 26
21 20 23 28 31 32 32 30 26 28 33 34 32 34 33 28 25 25 24 24 23 22 22 23 23 23 26 29 33 35 36 37 36 33 32 32 32 32 32 32 32 32 31 31 30 30 30 30 30 30 30 30 29 29 29 28 27 27 27 26 26 26 26 25 25 25 25 24 24 24 24 24 24 24 24 24 24 24 24 25 25 25 25 26 25 26
20 20 21 24 28 28 28 29 28 28 30 30 28 28 29 29 28 27 26 25 24 23 22 23 22 23 28 34 35 35 36 36 36 34 32 32 33 33 33 32 32 32 32 31 31 30 30 30 30 30 30 30 30 29 29 28 28 27 27 26 26 26 26 25 25 25 25 24 24 24 24 24 24 24 24 24 24 24 24 25 25 25 25 25 25 25
19 18 18 20 22 23 26 31 33 32 32 31 29 28 28 28 26 25 24 25 25 23 23 23 22 24 31 36 35 35 36 36 37 35 33 32 33 33 33 33 32 32 32 31 31 31 30 30 30 29 30 30 30 29 29 29 28 28 27 27 26 26 26 25 25 25 25 25 24 24 24 24 24 24 24 24 24 24 24 24 25 25 25 25 25 25
19 18 17 18 21 23 27 31 33 33 34 34 32 31 32 30 26 23 22 23 24 24 24 24 22 26 34 36 35 36 36 36 37 36 34 33 33 33 33 33 33 32 32 32 31 31 31 30 30 29 29 30 29 29 29 29 29 28 28 27 26 26 26 26 25 25 25 25 24 24 24 24 24 24 24 24 24 24 24 24 25 25 25 25 25 25
19 18 17 18 21 24 28 31 32 33 34 32 32 33 33 31 29 27 26 26 24 23 24 24 22 26 35 37 34 35 35 36 37 36 34 33 33 34 33 33 33 32 32 32 32 31 31 30 30 29 29 29 29 29 29 29 29 28 28 27 27 26 26 26 26 25 25 25 25 24 24 24 24 24 24 24 24 24 24 24 24 25 25 25 25 25
18 17 16 17 20 23 25 27 28 30 32 31 32 33 33 33 32 31 29 27 25 23 24 24 22 25 34 37 35 33 34 35 36 35 34 33 33 34 34 33 33 32 32 32 32 32 31 30 30 29 29 29 29 29 29 29 29 29 28 28 27 27 26 26 26 25 25 25 25 25 24 24 24 24 24 24 24 24 24 24 24 25 25 25 25 25
17 17 16 16 19 21 22 23 23 24 27 30 32 33 33 33 32 29 27 24 23 24 24 23 23 27 35 38 35 34 34 35 35 34 34 34 34 34 34 33 33 33 32 32 32 31 31 30 30 30 29 29 29 29 29 29 29 29 29 28 28 27 27 26 26 26 25 25 25 25 24 24 24 24 24 24 24 24 24 24 24 24 25 25 25 25
17 17 17 16 18 19 20 21 23 23 23 25 29 32 32 33 33 30 26 23 24 24 23 24 26 27 32 37 36 34 35 35 35 34 33 34 34 34 34 33 33 33 32 32 32 31 31 31 30 30 29 29 30 30 29 29 30 29 29 29 28 28 27 27 26 26 26 25 25 25 25 24 24 24 24 24 24 24 24 24 24 25 25 25 25 25
16 15 16 17 18 19 20 20 22 23 23 24 26 30 32 33 33 30 26 25 27 24 22 27 29 26 29 37 37 34 35 36 35 34 33 34 34 34 34 33 33 33 32 32 32 31 31 30 30 30 29 29 30 30 30 30 30 30 29 29 29 28 28 27 27 26 26 26 25 25 25 25 25 25 24 24 24 24 24 25 25 25 25 25 25 25
15 15 16 17 17 18 19 21 22 24 25 27 28 29 32 32 31 28 27 29 29 25 24 28 30 27 31 38 37 35 35 36 36 35 34 33 34 34 33 33 33 33 32 32 32 32 31 31 30 30 30 30 30 30 30 30 30 30 30 29 29 29 28 28 27 26 26 26 26 25 25 25 25 25 25 25 24 24 25 25 25 25 25 25 25 25
15 15 16 17 16 17 19 22 24 25 26 27 28 30 33 33 32 31 30 31 31 29 31 32 30 30 35 38 37 35 34 33 34 33 33 33 34 33 33 33 33 33 33 32 32 32 31 31 30 30 30 30 30 30 30 30 30 30 30 30 29 29 29 28 27 27 26 26 26 26 25 25 25 25 25 25 25 25 25 25 25 25 25 25 25 25
15 15 16 16 15 17 20 22 23 24 25 26 27 31 33 33 32 32 31 32 31 30 33 32 29 31 34 34 34 33 32 33 33 32 32 33 33 33 33 33 33 33 33 33 32 32 31 31 31 30 30 30 30 30 30 30 30 30 30 30 30 29 29 28 28 27 27 26 26 26 26 25 25 25 25 25 25 25 25 25 25 25 25 25 25 25
15 14 15 16 15 17 20 21 21 22 24 26 27 29 31 31 31 31 32 33 31 30 31 28 27 30 33 32 32 32 32 32 33 32 32 33 33 34 34 33 34 33 33 33 33 32 32 31 31 30 30 30 30 30 30 30 30 30 30 30 30 30 29 29 28 27 27 27 27 26 26 26 26 25 25 25 25 25 25 25 25 25 25 25 25 25
15 14 15 15 14 16 19 20 20 21 23 24 25 26 28 31 32 32 32 32 30 29 29 28 28 32 33 32 32 32 31 31 31 31 32 32 33 33 33 33 33 33 33 33 32 32 32 32 31 31 30 30 30 31 31 31 30 30 30 30 30 30 30 29 28 28 27 27 27 27 26 26 26 26 25 25 25 25 25 25 25 25 25 25 25 25
14 14 14 15 14 16 18 19 20 21 22 23 25 25 26 28 28 26 25 25 25 26 28 29 31 33 32 31 31 30 29 29 29 29 29 30 31 31 31 32 32 32 32 32 32 32 32 32 31 30 30 30 31 31 31 31 31 31 31 30 30 30 30 29 29 28 28 27 27 27 27 26 26 26 26 26 25 25 25 25 25 25 25 25 25 25
14 14 14 15 15 16 17 19 20 21 22 23 25 24 24 25 25 24 23 23 23 23 25 28 31 32 31 30 29 28 28 28 28 28 28 28 29 29 29 29 29 30 30 30 31 31 31 31 31 29 29 30 31 31 31 31 31 31 30 30 30 30 30 30 29 29 28 28 27 27 27 27 26 26 26 26 26 25 25 25 25 25 25 25 26 26
14 14 15 15 16 17 17 18 20 22 23 24 24 23 23 24 24 24 23 22 23 23 24 25 28 30 30 28 28 28 28 28 28 28 28 28 28 28 27 27 27 27 27 28 28 29 29 29 29 29 29 30 31 31 31 31 31 31 30 30 30 30 30 30 29 29 28 28 28 28 27 27 27 26 26 26 26 26 25 25 25 25 25 25 26 26
15 15 15 15 16 18 17 17 19 21 23 22 21 21 22 22 22 23 23 22 22 23 23 24 26 28 29 28 28 28 28 28 27 27 28 28 28 27 27 27 27 27 27 27 26 27 27 27 28 28 29 30 31 31 31 31 31 31 31 30 30 30 30 30 30 29 29 28 28 28 28 27 27 27 26 26 26 26 26 26 26 26 26 26 26 26
16 16 16 15 16 18 17 17 19 21 21 20 19 20 22 22 22 23 23 22 22 22 23 24 25 26 27 28 28 28 28 27 26 26 27 27 27 27 27 27 27 27 26 26 26 26 26 26 27 28 28 29 29 30 31 31 31 31 30 30 30 30 30 29 29 29 29 29 29 28 28 28 27 27 27 26 26 26 26 26 26 26 26 26 26 26
16 16 16 15 16 16 17 17 18 19 19 19 18 19 21 21 22 23 23 21 22 22 22 23 24 24 25 26 27 27 27 25 25 26 27 27 27 27 27 26 27 26 26 26 26 26 26 26 27 27 28 28 27 28 30 30 31 31 30 29 30 29 29 29 30 30 30 29 29 29 29 28 28 27 27 27 26 26 26 26 26 26 26 26 26 26
16 16 16 15 15 16 17 18 19 18 17 18 18 18 20 21 23 23 22 21 21 22 22 22 23 23 24 24 25 25 25 24 24 25 26 26 26 26 26 26 26 26 26 26 26 26 26 26 26 26 26 26 26 28 29 29 30 30 30 29 29 29 29 29 30 30 30 30 29 29 29 29 28 28 27 27 27 27 27 27 26 26 26 26 26 26
14 15 15 15 16 17 17 18 19 18 17 17 18 18 20 22 23 22 20 20 21 22 22 22 22 22 23 23 23 23 23 24 24 25 25 25 25 25 25 25 25 25 25 25 25 25 25 26 26 25 25 26 27 28 28 28 29 29 29 29 29 29 29 30 30 30 30 30 30 29 29 29 28 28 28 28 27 27 27 27 27 27 26 26 26 26
14 14 15 16 16 17 17 18 18 18 17 17 17 18 21 22 21 20 20 20 21 21 21 22 21 22 22 22 22 22 22 23 23 24 24 24 24 24 24 24 25 25 24 24 25 25 24 24 25 25 25 26 27 27 28 28 29 29 29 29 29 29 30 30 30 30 30 30 30 30 29 29 29 28 28 28 28 27 27 27 27 27 27 26 26 26
15 14 15 16 16 17 18 18 17 17 17 17 17 18 20 19 19 19 19 20 21 21 21 21 21 21 21 22 22 22 22 22 22 22 23 23 23 23 23 24 24 24 24 24 24 24 24 24 23 24 25 26 26 26 27 27 28 28 28 28 28 29 30 31 31 31 30 30 30 30 30 29 29 28 28 28 28 27 27 27 27 27 27 27 26 26
15 15 14 15 16 16 16 17 17 17 17 17 17 17 18 18 18 18 18 19 20 20 20 20 20 21 21 21 21 22 21 22 22 22 22 22 22 22 22 23 23 23 23 23 23 24 24 23 23 24 25 25 26 26 26 26 26 26 26 27 28 28 29 31 31 31 30 30 30 30 30 29 29 28 28 28 28 27 27 27 27 27 27 26 26 26
15 15 15 15 16 16 16 17 18 19 19 18 17 17 18 18 18 18 18 18 18 19 20 20 20 20 20 21 21 21 21 21 21 21 21 21 21 21 22 22 22 22 23 23 23 24 23 23 23 23 24 25 25 26 26 25 25 25 25 26 27 28 29 30 31 30 30 30 30 30 29 29 29 28 28 28 28 27 27 27 27 26 26 26 26 26
16 16 16 16 17 17 18 18 18 19 19 19 18 17 17 18 18 17 17 17 17 18 19 20 20 20 20 20 20 20 20 21 21 21 21 21 21 21 21 21 21 21 21 22 23 24 23 23 23 23 24 25 25 25 26 25 25 25 25 26 27 28 28 29 29 29 29 30 30 30 29 29 28 28 28 28 28 27 27 27 27 26 26 26 26 26
16 16 16 16 17 17 17 18 18 18 19 18 17 17 17 17 17 17 17 17 18 18 18 19 20 20 20 19 20 20 20 20 20 21 21 21 21 21 21 21 21 21 21 21 22 24 24 23 22 22 23 24 25 25 25 25 25 25 25 26 27 28 28 29 29 29 29 29 29 29 29 29 28 27 27 27 27 27 27 27 27 26 26 26 26 26
15 15 15 16 16 16 17 17 17 17 18 18 17 17 17 17 17 17 17 17 17 18 18 18 19 19 19 19 19 19 19 19 20 20 20 20 20 20 21 21 21 21 21 21 23 24 24 23 22 23 23 24 25 25 25 25 25 25 26 26 26 27 28 28 28 28 29 29 29 29 29 28 28 27 27 27 26 26 26 26 26 26 26 26 26 26
15 15 15 15 15 16 17 17 16 17 18 18 17 17 17 17 17 17 17 17 17 18 18 18 19 19 19 19 19 19 19 19 19 20 20 20 20 20 20 20 20 21 21 21 22 23 24 23 23 23 24 24 24 24 25 25 25 25 25 25 26 27 28 28 28 28 28 28 28 28 28 28 27 27 26 25 25 24 24 25 25 26 26 27 27 27
14 14 14 13 13 14 15 15 15 15 16 16 16 16 16 17 17 16 16 17 17 18 18 18 18 19 19 19 19 19 19 19 19 19 19 20 20 20 20 19 19 20 21 21 22 23 23 24 24 24 24 24 24 24 24 25 25 25 25 25 25 26 27 28 28 27 27 27 27 27 27 27 26 26 25 25 24 24 23 23 24 25 25 26 26 27
13 13 13 12 12 12 14 14 15 15 14 15 16 16 16 16 17 17 16 17 17 17 18 18 18 18 18 19 18 18 18 19 19 19 19 19 19 19 19 19 19 20 20 21 21 22 23 24 24 24 24 24 24 24 24 24 25 25 25 25 25 25 26 27 27 27 26 27 27 27 26 26 25 25 24 24 24 24 23 22 23 23 24 25 25 26
Height
731 746 750 745 741 738 738 738 742 743 743 746 749 752 752 752 749 736 729 720 716 734 740 735 735 736 741 740 734 736 738 743 748 749 751 750 750 751 753 755 757 759 758 758 761 764 767 771 774 777 780 784 787 790 792 795 798 801 803 805 806 809 812 815 817 820 821 823 825 827 829 830 831 833 835 836 837 838 840 841 842 843 844 845 846 847
733 748 742 732 733 733 734 735 738 741 742 744 748 752 751 751 746 730 724 719 714 731 739 731 733 736 736 735 730 732 739 744 744 745 746 745 746 747 748 751 753 754 755 756 760 761 764 767 770 773 776 780 783 785 788 790 793 797 800 802 804 806 809 811 813 816 818 819 821 823 825 827 829 831 833 834 836 837 838 840 841 842 843 844 844 845
743 742 728 724 729 730 732 733 737 742 743 746 747 752 754 748 743 732 722 717 716 728 736 731 734 736 732 730 728 728 733 735 732 732 735 736 741 744 745 747 748 751 754 755 757 758 760 763 766 769 772 775 778 781 784 787 790 793 797 800 802 803 805 808 811 813 815 817 819 821 823 825 828 829 831 833 835 836 837 838 839 840 841 842 843 844
745 729 718 724 726 729 734 733 736 742 743 746 747 752 754 744 745 744 728 719 717 721 727 729 732 733 732 732 730 725 724 726 725 723 724 725 730 734 735 738 742 747 751 752 752 753 755 758 762 764 767 770 774 778 781 784 787 790 793 796 799 801 802 805 808 810 813 816 818 820 822 824 827 829 831 833 834 835 836 836 838 838 839 840 841 842
732 717 712 722 724 727 735 734 736 744 746 745 742 747 748 739 740 740 729 723 722 719 717 725 741 740 735 742 739 727 723 723 723 723 725 725 724 726 729 733 736 739 742 746 748 749 750 753 756 759 762 766 770 773 776 779 782 785 788 791 795 798 800 802 805 808 812 815 817 820 822 824 826 828 830 831 832 832 833 834 835 836 837 838 839 840
723 712 710 720 724 726 732 734 733 739 746 746 737 734 736 734 733 731 729 731 740 741 721 723 758 758 736 740 740 730 729 729 726 728 729 728 726 728 731 732 733 735 736 739 741 743 745 747 751 755 758 762 765 767 771 774 778 781 784 788 791 795 797 800 802 806 809 811 814 816 819 821 823 825 826 826 827 828 830 831 832 834 835 837 838 839
716 711 711 719 724 725 730 732 727 730 745 748 731 722 726 730 731 730 732 739 750 751 723 713 749 760 740 737 735 728 731 730 728 729 727 726 727 727 728 728 730 732 734 735 736 738 741 743 747 750 752 756 759 762 766 770 774 778 781 785 788 791 794 797 800 803 806 808 811 813 814 816 817 819 820 822 824 826 828 829 831 832 834 835 836 837
708 713 715 716 720 725 729 730 722 722 739 740 721 717 724 727 730 729 733 742 742 738 727 715 727 746 746 735 726 724 729 731 730 731 728 725 725 723 723 723 724 727 729 731 733 735 737 739 741 744 747 750 753 758 763 767 771 774 778 781 785 788 791 794 797 800 803 805 807 809 811 813 814 814 816 819 822 825 827 828 829 830 832 833 835 836
702 712 715 714 721 724 721 718 714 716 729 727 714 716 720 721 725 724 731 741 736 739 747 731 723 744 748 727 718 722 729 735 733 728 727 724 721 720 720 720 720 722 723 725 728 730 732 734 737 740 743 746 750 756 760 763 767 771 774 778 782 785 789 792 795 797 800 802 804 807 809 810 811 813 815 818 820 823 825 826 828 829 830 832 833 835
700 702 704 709 717 717 712 708 707 714 721 715 710 715 716 718 719 721 731 737 737 750 757 737 727 746 747 724 720 728 731 734 729 721 719 717 716 716 715 716 717 719 722 722 723 725 727 730 733 738 742 745 748 751 756 760 764 768 772 776 779 782 786 789 792 795 797 800 802 804 806 807 809 811 814 817 819 821 823 824 825 827 828 830 831 833
694 690 693 699 703 703 703 704 702 706 710 708 712 719 722 723 721 723 729 732 748 760 749 732 725 737 746 728 716 721 719 716 717 717 716 714 712 712 710 712 714 716 719 719 721 722 724 728 732 737 741 744 747 749 753 757 761 765 769 772 776 779 783 786 788 792 794 797 800 801 803 805 807 809 812 814 816 818 820 821 823 824 826 828 829 831
696 695 693 689 688 691 698 702 700 698 701 707 716 724 734 737 732 734 735 737 761 765 739 724 719 729 745 729 706 702 697 695 702 707 711 710 709 709 707 708 709 711 714 717 720 722 723 728 731 735 738 741 745 747 750 754 757 762 765 769 773 776 779 783 785 788 791 794 797 799 801 803 805 807 809 810 812 814 816 818 820 822 824 826 828 830
700 696 692 686 681 683 696 707 706 702 702 710 718 727 746 755 751 755 753 749 760 754 726 718 720 727 734 715 694 691 687 687 689 689 695 700 702 704 704 704 704 707 711 714 717 720 721 724 726 729 733 736 740 743 746 750 754 758 762 765 769 772 776 779 782 785 788 790 793 796 799 801 803 805 806 807 809 811 813 816 818 820 822 824 825 827
708 698 689 690 686 678 688 705 714 712 708 713 719 728 746 758 764 769 760 751 752 741 718 712 719 728 724 703 687 682 678 680 682 681 683 686 691 695 695 697 700 703 707 710 713 716 718 720 722 725 729 732 735 738 742 746 750 754 758 762 765 768 772 775 778 781 784 787 789 792 795 798 801 802 804 805 807 809 811 813 816 817 819 821 822 824
721 716 693 689 688 680 682 691 698 703 706 707 704 714 731 736 747 758 753 749 747 736 720 715 722 727 719 697 678 671 668 669 675 677 678 678 679 683 687 691 697 700 703 706 709 712 713 715 718 722 725 728 731 735 738 742 746 750 754 757 760 764 768 771 774 777 781 783 786 789 792 795 798 800 801 803 805 807 809 811 813 815 817 818 820 821
715 713 686 678 679 676 680 679 677 691 706 702 693 707 720 713 717 731 734 730 729 731 725 718 716 709 697 683 670 668 668 666 671 674 677 681 679 682 689 692 695 697 699 703 706 708 710 711 715 719 722 726 729 732 735 737 741 745 749 753 756 760 764 767 770 774 776 780 783 787 790 793 795 798 800 802 803 805 807 809 811 812 814 816 818 820
714 705 679 675 675 669 672 672 669 682 697 699 699 705 701 690 698 719 727 717 717 734 730 713 709 700 692 686 672 670 672 670 673 675 676 681 681 685 692 691 692 694 695 698 700 702 705 707 710 714 718 722 725 729 731 733 736 740 744 749 753 757 761 764 767 770 773 777 781 784 787 790 793 795 797 798 800 802 805 807 809 810 812 814 816 818
721 713 683 673 677 666 660 665 666 665 674 691 700 692 684 688 695 707 726 727 729 742 732 712 711 708 707 702 680 672 677 674 675 677 675 677 681 686 688 687 688 689 689 692 694 697 701 703 706 709 713 717 720 723 726 729 732 736 741 745 749 753 757 760 764 767 771 774 778 782 785 788 790 792 794 795 798 800 803 805 807 809 810 812 814 816
727 727 695 671 673 664 653 667 677 665 658 671 678 673 682 705 710 707 721 732 738 746 735 719 714 708 707 702 684 676 677 671 672 677 676 677 680 682 683 683 684 684 687 690 692 696 699 700 702 704 709 713 716 719 722 726 731 734 738 741 745 749 752 756 760 764 768 771 775 778 781 784 787 790 792 794 796 799 800 802 804 806 808 809 811 813
728 732 711 675 667 665 659 671 684 677 662 661 668 669 674 691 701 703 708 715 728 740 737 729 723 711 698 687 678 674 669 664 667 674 675 674 674 676 676 678 680 683 686 688 690 693 694 696 697 699 704 708 712 717 721 725 729 731 735 738 742 745 749 754 758 761 765 768 771 775 778 782 785 787 790 792 794 796 797 799 801 803 805 807 809 810
729 735 726 692 675 677 673 669 671 673 671 671 677 680 679 682 689 695 698 699 709 727 733 734 732 712 683 668 667 665 660 657 658 665 669 667 665 668 669 671 675 678 681 683 685 688 690 693 695 697 702 706 711 716 719 722 725 727 731 734 737 742 746 750 754 758 761 764 768 771 774 777 781 784 787 790 792 794 795 797 799 800 803 804 806 808
739 743 741 721 703 694 678 659 652 656 662 668 675 678 678 682 689 704 712 700 694 708 716 722 727 703 666 654 655 654 653 650 647 653 661 661 660 663 663 664 668 672 676 679 681 684 687 690 692 696 700 706 711 714 717 719 722 725 728 730 733 738 742 746 750 754 757 760 764 767 770 774 777 780 784 787 789 791 793 795 796 798 801 802 804 806
742 745 745 734 715 695 673 654 647 648 649 655 664 666 669 675 683 701 715 703 694 700 698 703 715 691 653 644 647 644 642 641 639 644 653 657 657 658 659 659 662 666 669 672 675 679 683 685 689 694 698 703 707 710 713 716 718 721 723 726 731 735 738 742 745 749 753 757 760 763 767 771 774 778 781 783 786 787 790 792 794 796 798 800 802 803
740 743 747 738 712 684 665 654 648 644 647 656 661 659 662 668 670 677 688 691 695 700 697 706 717 688 648 639 642 639 635 633 633 638 646 653 655 654 656 657 659 664 665 667 672 675 679 683 688 693 696 699 703 707 710 712 714 717 721 725 729 731 735 739 742 746 750 753 757 760 764 768 771 775 777 780 782 784 786 789 791 794 795 797 799 801
749 751 756 752 726 694 676 671 665 655 653 657 657 655 656 658 662 669 674 682 693 695 693 707 715 685 647 636 637 635 633 632 633 636 640 647 651 652 653 653 656 661 664 667 671 675 679 683 687 691 693 695 698 702 705 707 710 714 718 722 725 728 732 737 740 744 747 750 754 757 761 764 767 770 773 775 778 780 783 786 788 790 792 794 796 798
753 754 756 759 746 722 705 696 688 680 672 661 650 650 653 655 661 670 677 689 697 691 687 697 698 676 648 638 636 634 632 632 634 636 637 640 643 646 649 652 654 658 662 666 670 674 677 680 684 686 688 691 694 697 700 704 707 712 716 719 722 726 730 734 738 741 744 748 751 754 757 759 762 765 767 770 774 777 780 783 785 787 789 791 793 795
752 751 751 754 748 735 723 707 693 691 692 679 659 649 651 654 657 664 677 689 689 687 689 685 678 672 658 645 642 639 634 634 636 638 639 638 639 641 645 649 652 655 660 663 666 671 674 677 680 682 684 687 689 692 696 700 705 709 713 716 720 724 727 730 734 738 741 744 747 750 752 754 757 760 763 766 769 773 776 778 781 783 785 787 788 790
754 755 747 745 740 730 723 710 696 693 692 682 667 653 648 651 655 662 673 677 674 684 694 678 667 673 665 647 644 642 635 634 636 637 638 638 638 639 642 646 649 653 657 660 664 668 671 674 677 679 681 683 686 689 693 698 702 705 709 712 716 720 723 727 730 733 736 740 742 745 747 750 753 756 759 762 765 768 771 774 776 778 780 782 784 786
757 757 745 739 736 725 715 704 693 687 679 669 661 651 642 646 655 660 665 666 664 674 681 670 666 671 660 644 641 639 633 632 631 630 632 634 636 638 641 645 649 652 656 659 662 665 667 670 672 675 678 680 683 687 690 695 699 702 706 709 712 716 718 722 725 728 732 734 737 739 742 746 750 752 756 759 762 764 767 769 772 774 776 778 779 781
756 755 743 740 737 722 707 695 684 678 670 662 655 644 637 641 647 652 657 659 659 659 659 659 664 662 649 638 636 634 632 631 629 629 631 633 636 639 642 646 649 651 655 658 661 662 662 664 666 670 674 677 681 684 687 691 694 697 701 704 708 711 714 718 721 724 727 730 732 735 739 742 746 749 752 755 757 760 763 766 769 771 773 774 776 778
756 754 743 743 740 720 700 690 682 676 670 662 653 642 635 637 642 648 653 655 659 658 653 657 665 659 644 637 635 635 634 633 634 636 635 633 635 638 642 645 647 649 653 655 658 660 661 663 666 668 672 675 677 680 683 687 690 694 697 700 704 707 711 715 718 720 723 726 728 732 736 739 742 745 748 751 754 757 759 762 765 767 769 771 772 774
757 756 747 746 747 726 700 692 690 683 671 659 650 645 642 640 642 645 646 649 656 658 657 664 669 661 647 640 639 639 638 638 640 640 638 635 634 636 641 644 645 647 649 652 655 658 661 664 666 668 669 671 673 676 679 683 687 691 693 697 700 704 708 711 714 717 720 723 726 729 732 735 738 741 744 747 750 753 756 759 762 764 766 767 768 771
756 757 752 752 753 731 705 700 699 688 678 669 662 658 651 641 640 645 649 655 659 659 662 664 660 652 644 640 642 645 645 645 645 642 639 637 635 636 639 641 643 645 645 648 651 654 657 660 661 663 664 666 669 672 675 678 683 686 689 693 697 701 705 707 710 714 716 719 723 725 728 731 734 737 740 743 747 750 753 756 758 759 761 763 765 768
756 757 754 753 753 736 714 707 700 691 689 683 669 664 660 651 653 666 675 676 672 666 663 656 647 644 644 642 644 651 652 650 649 645 640 637 637 640 643 643 644 645 645 646 648 650 653 655 658 660 662 664 667 669 673 677 680 683 687 691 694 698 701 704 707 710 712 715 718 721 724 727 730 733 736 739 743 746 749 751 753 755 758 760 762 764
757 756 753 751 749 737 723 714 706 699 695 681 665 662 664 660 660 669 678 679 676 673 668 659 649 646 648 645 643 648 651 649 647 646 644 641 640 643 647 650 650 649 650 651 651 652 654 655 658 660 662 665 668 670 674 677 679 683 686 689 692 695 697 701 703 706 709 711 714 717 720 723 726 729 732 735 739 741 743 746 748 751 754 756 758 759
756 754 751 749 743 734 729 726 715 697 683 672 665 664 666 666 665 669 680 686 683 677 674 669 659 652 652 649 644 645 646 644 646 650 651 648 644 644 649 653 654 654 654 655 655 656 657 657 658 660 662 666 669 672 674 676 679 682 685 687 690 692 695 698 700 702 705 707 710 713 716 719 722 725 728 731 734 736 739 741 743 746 749 752 754 756
750 750 750 748 739 731 734 734 716 695 683 682 684 681 679 683 682 681 690 695 686 678 677 673 667 661 656 652 649 645 639 642 656 664 659 653 650 648 649 651 653 654 655 655 656 657 658 659 660 662 664 666 670 672 674 676 678 680 683 686 688 691 693 695 697 699 701 703 706 709 712 715 718 721 724 727 729 731 734 737 739 742 745 748 750 751
743 744 747 748 739 732 737 738 723 710 704 703 703 691 679 680 680 677 688 697 689 681 679 674 670 668 663 660 655 644 639 655 677 679 667 660 656 651 651 652 652 653 654 656 657 659 660 661 662 664 666 668 671 674 675 676 678 679 682 684 686 688 691 692 693 695 697 699 702 705 708 711 714 716 719 722 724 727 730 732 735 738 740 742 744 745
739 740 742 748 745 739 742 742 734 726 720 713 706 690 675 673 671 669 687 705 698 686 682 677 673 671 668 666 657 646 651 676 692 685 672 666 661 656 656 656 655 655 656 658 660 661 662 663 664 666 668 670 673 675 676 677 678 679 681 682 684 686 687 688 689 691 693 696 699 701 704 706 709 711 714 717 719 722 725 728 730 733 735 737 738 740
743 743 743 747 747 741 740 738 731 729 726 715 703 691 678 669 662 670 700 718 705 691 687 683 678 675 672 668 660 658 670 686 690 682 673 668 664 660 659 659 660 660 660 661 663 663 664 665 665 667 670 673 675 676 676 677 678 680 681 682 683 684 684 685 686 688 691 693 695 698 700 702 704 707 709 712 715 718 721 723 726 728 731 732 734 736
749 748 745 745 744 740 740 737 729 727 726 715 704 692 676 665 671 695 719 720 704 695 693 687 683 681 677 672 670 674 681 683 680 677 672 669 667 665 662 661 662 662 664 665 666 666 666 667 669 671 673 675 676 676 677 678 678 680 681 682 683 683 683 684 686 687 689 690 692 694 696 698 700 702 705 708 711 714 717 719 722 724 726 728 731 733
752 750 745 743 743 740 737 732 729 728 723 715 706 691 674 678 701 718 718 709 702 700 696 690 688 685 681 679 679 683 685 682 678 677 675 673 672 670 667 665 664 665 667 668 669 670 671 671 673 674 676 676 677 677 677 678 678 679 680 681 681 682 682 683 684 685 686 687 688 690 692 694 697 699 701 704 707 710 713 715 718 720 722 725 727 729
747 750 750 745 740 737 733 732 737 738 727 715 709 699 690 702 718 718 710 707 705 700 696 694 691 688 686 686 685 685 686 685 684 683 681 679 677 674 672 670 670 671 671 672 673 675 675 676 677 678 679 680 680 679 679 678 678 679 679 680 680 680 680 681 681 682 684 685 686 687 689 691 693 696 699 701 704 707 710 712 715 717 719 721 723 725
743 750 757 751 742 741 743 741 739 735 726 717 717 717 714 715 714 712 714 714 706 698 697 696 694 692 691 690 689 688 688 688 688 687 686 685 683 681 678 676 675 676 676 677 679 680 681 682 682 682 682 682 682 683 682 681 680 680 679 679 679 679 678 678 679 680 681 682 684 685 687 689 691 693 696 698 701 704 707 709 711 713 715 718 720 722
745 746 751 749 742 740 741 737 728 723 719 718 719 721 719 715 712 714 717 715 708 702 698 695 695 695 693 692 693 692 691 690 690 688 687 687 686 685 683 681 680 680 680 680 682 683 683 684 684 684 685 684 684 685 684 683 682 681 680 680 679 678 677 677 677 677 678 679 681 683 685 687 689 691 694 696 699 701 703 706 708 710 713 715 717 719
743 741 743 743 738 733 730 727 723 720 718 718 720 721 719 716 714 715 716 716 713 707 700 697 697 696 695 696 696 696 696 695 693 691 689 688 687 686 684 683 681 681 681 682 682 683 683 683 684 684 684 685 685 685 684 684 683 682 682 681 679 678 677 676 676 676 676 678 679 681 683 686 688 690 692 694 697 698 700 703 705 707 710 712 714 716
741 741 743 742 738 736 732 727 725 724 721 721 723 723 720 719 717 715 716 717 714 709 706 702 699 697 698 699 699 700 700 698 696 695 693 691 691 690 687 685 684 682 682 683 683 683 683 683 684 684 685 686 686 685 685 685 684 684 683 681 680 679 678 677 676 676 676 677 678 680 682 684 686 689 691 693 695 697 699 700 703 705 707 709 712 714
745 744 745 743 740 737 732 728 727 726 722 721 724 724 722 722 720 715 715 715 713 712 711 708 703 701 701 702 703 703 702 700 700 699 696 695 695 693 691 689 687 685 684 684 683 683 683 683 684 685 686 687 687 687 687 687 686 685 684 682 681 680 678 677 676 676 676 677 678 679 681 683 685 688 690 693 695 696 698 700 702 704 705 707 709 711
748 748 748 747 745 739 732 729 730 728 722 721 723 723 722 723 722 719 717 715 712 712 713 712 709 705 704 705 706 706 705 704 702 701 700 699 698 696 694 692 689 688 687 686 685 685 684 685 685 686 687 688 688 688 688 688 687 686 685 683 682 680 679 678 677 677 677 677 678 679 681 683 685 687 689 691 694 696 698 700 702 703 704 706 707 709
752 753 752 753 754 747 738 735 737 736 732 727 725 724 724 723 723 723 721 717 714 712 711 711 710 708 706 707 707 707 708 707 704 703 703 701 699 698 696 694 692 691 688 686 685 684 684 685 686 687 689 689 689 689 689 688 688 687 686 684 682 681 679 678 677 677 678 678 678 680 681 682 684 686 688 690 692 695 698 700 701 702 704 705 706 708
756 756 756 758 758 749 741 738 737 737 734 729 725 725 725 722 722 722 721 718 716 712 709 708 708 708 707 706 705 706 707 706 704 703 703 701 699 698 695 694 693 691 687 685 684 685 686 687 688 688 689 690 690 690 689 689 688 687 686 685 683 681 680 679 678 678 678 678 679 679 680 682 684 686 688 690 692 694 697 700 702 704 704 705 706 707
Wind_Speed
6 5 8 11 11 11 12 10 7 5 5 6 5 5 7 6 7 9 11 9 7 9 11 13 15 12 19 23 21 21 20 18 20 19 18 18 17 17 18 18 18 18 17 20 28 32 33 33 35 36 35 36 37 37 39 40 40 39 36 35 36 38 38 38 37 34 33 32 31 30 31 30 27 26 25 24 24 22 22 23 21 19 17 15 16 20
5 7 13 14 10 9 10 10 7 6 8 8 6 6 7 6 8 11 13 10 8 8 10 14 15 12 19 23 21 22 21 19 21 21 21 22 19 17 19 20 19 17 14 17 23 28 32 33 34 37 36 36 36 38 41 42 42 41 39 37 36 38 39 40 40 37 35 35 33 31 32 32 29 28 27 25 25 23 22 24 23 20 17 17 16 18
7 12 17 13 7 7 8 10 10 10 10 8 6 6 6 6 6 9 12 9 7 7 8 14 15 11 17 22 21 23 22 20 22 24 23 23 21 18 19 20 19 17 15 16 19 23 30 33 34 35 36 38 38 39 41 42 42 42 40 38 36 38 40 41 40 38 36 36 34 32 32 32 30 29 28 25 24 23 22 24 25 21 19 19 18 17
9 12 14 10 7 10 10 11 13 11 9 8 7 6 6 7 6 7 10 7 5 6 7 14 14 9 13 16 18 23 23 20 23 25 24 24 23 22 22 20 20 20 18 19 19 20 26 31 33 33 34 38 39 38 40 40 41 41 41 40 39 39 40 41 41 39 36 35 33 31 30 31 29 28 27 26 24 22 22 25 26 25 22 21 20 18
11 6 9 12 11 12 11 11 12 9 8 10 11 9 8 10 11 10 9 4 4 6 7 12 10 6 10 15 15 18 20 19 21 22 19 18 20 20 21 20 20 21 20 20 21 19 21 26 31 33 34 37 38 38 39 41 41 41 41 42 42 41 40 41 42 40 35 33 32 30 27 26 25 25 26 27 26 23 22 25 27 27 26 23 22 20
13 6 11 16 14 13 13 11 12 11 7 9 14 14 13 13 13 13 10 5 4 6 6 10 9 5 8 16 18 16 16 17 16 17 18 16 16 16 18 18 19 20 20 20 21 20 20 24 30 34 35 36 37 39 42 43 43 42 42 43 43 42 41 41 41 40 37 35 35 32 28 27 25 25 27 30 31 28 25 25 27 27 27 26 24 21
10 8 10 14 15 15 14 11 13 12 7 8 13 16 16 14 14 14 8 3 4 4 6 8 10 6 5 12 19 19 19 19 16 16 18 17 15 16 16 17 18 18 18 19 20 20 20 23 26 30 35 37 38 40 43 44 43 43 43 43 43 42 41 41 41 41 39 37 37 36 34 33 31 29 30 33 33 31 28 26 27 27 27 27 26 23
9 12 11 13 15 14 13 11 13 14 9 7 10 13 15 15 16 16 9 4 5 4 5 5 7 6 5 9 17 22 22 20 17 16 16 16 17 18 18 19 20 20 19 18 19 20 20 22 25 30 36 39 40 41 42 43 43 43 43 43 43 42 41 41 42 42 41 39 38 38 36 34 35 34 33 33 34 32 30 27 27 28 29 29 27 25
10 15 14 14 13 11 12 13 13 14 11 6 7 11 14 15 16 14 8 5 5 4 6 6 4 5 5 7 13 20 21 19 18 19 17 17 19 19 19 20 20 20 20 19 19 20 20 22 28 34 37 39 40 41 42 42 43 43 43 44 43 42 41 41 42 43 42 41 40 39 37 34 35 35 33 33 33 33 31 28 27 28 30 30 28 25
7 13 15 13 11 10 11 13 12 14 12 7 7 9 10 13 15 12 8 6 5 5 8 8 4 4 5 5 9 15 17 17 18 19 18 19 20 20 20 20 19 18 17 18 19 19 20 25 31 35 36 37 38 41 43 43 42 42 42 42 42 42 41 41 42 43 42 41 39 38 38 36 34 32 31 31 32 33 33 30 28 28 30 31 30 27
6 8 12 13 11 9 9 12 13 14 13 9 8 8 7 8 9 8 5 5 5 6 10 11 7 6 5 5 7 11 15 19 18 16 16 18 20 20 19 19 18 17 16 16 18 18 20 25 30 32 33 35 36 39 41 41 41 42 42 42 42 42 41 42 43 44 43 41 40 39 39 38 35 33 31 32 32 34 34 32 30 29 30 31 30 28
10 9 8 10 13 11 8 10 13 15 14 10 7 8 7 5 4 5 3 4 6 6 8 9 8 7 6 5 5 8 14 21 21 19 20 21 21 20 18 17 18 17 16 16 16 16 18 20 23 27 31 33 35 36 38 40 40 41 42 42 42 41 41 42 43 44 43 42 41 40 39 38 37 34 33 34 35 35 35 33 31 30 31 31 31 29
10 13 8 7 12 15 11 8 9 12 13 10 7 6 6 4 4 5 4 4 5 6 7 7 8 6 6 6 7 8 10 15 20 22 24 24 22 20 18 18 17 16 16 16 16 16 16 17 17 22 28 31 33 36 39 40 40 40 41 42 42 41 42 42 43 44 44 43 42 41 40 39 38 36 35 36 36 36 36 35 33 31 31 31 31 31
7 10 12 11 9 12 14 9 6 9 10 10 9 7 6 6 6 6 5 3 4 6 8 7 7 5 5 6 9 11 10 11 16 19 24 25 24 22 21 19 17 17 17 16 16 16 16 17 16 20 27 30 32 37 39 40 40 39 40 42 43 43 44 43 43 44 44 44 44 42 42 40 38 38 37 36 36 37 36 35 34 34 33 32 32 32
7 7 10 13 6 7 14 12 8 9 9 11 10 8 7 6 6 5 4 5 4 4 6 4 5 5 5 5 8 10 10 9 14 17 21 24 24 23 21 19 18 18 17 16 16 16 17 18 18 21 27 29 32 36 39 40 41 40 40 42 44 43 43 44 43 44 44 44 44 43 42 40 39 39 38 36 35 36 37 36 35 35 35 34 34 33
9 8 5 10 8 7 13 12 10 10 9 10 9 7 8 6 5 3 3 5 4 3 4 4 5 5 5 5 5 5 7 6 13 16 19 19 19 18 16 17 17 17 17 16 15 17 18 19 20 23 26 29 32 35 37 39 41 41 41 42 44 43 43 44 44 44 44 44 43 42 42 40 39 39 37 36 34 34 36 37 36 36 36 36 35 34
6 8 4 8 13 14 13 11 12 11 7 6 8 9 8 6 6 3 4 2 4 4 5 4 4 3 2 6 6 4 6 4 10 17 19 20 18 16 15 16 17 16 17 17 17 18 18 19 21 24 27 29 31 34 37 40 42 43 42 42 43 42 42 43 43 43 43 43 41 41 41 40 40 39 38 38 37 36 35 36 36 36 35 35 35 34
4 6 6 9 15 17 15 12 12 13 9 7 9 9 5 4 4 4 2 2 3 5 4 4 6 4 1 5 6 6 8 7 7 15 19 21 19 17 16 17 18 18 19 20 19 18 18 18 20 25 29 32 34 37 40 42 43 43 43 42 43 42 42 42 42 42 42 41 40 39 40 40 40 40 40 39 39 37 35 35 36 35 35 35 35 34
6 5 7 10 13 13 14 13 11 12 13 10 9 9 8 5 6 5 4 4 4 4 3 4 6 5 4 5 4 6 12 11 9 13 18 20 19 18 18 18 20 20 17 17 17 15 16 17 20 25 29 33 36 38 39 40 40 40 41 42 43 43 44 44 42 41 41 41 40 39 40 40 39 39 39 39 38 36 35 36 36 36 36 36 35 34
6 3 5 8 8 7 9 10 9 11 13 9 7 8 8 6 6 5 3 4 5 4 3 3 4 5 5 6 8 12 14 14 11 11 15 20 21 19 19 18 19 18 15 16 16 15 17 18 21 28 31 33 36 37 36 37 38 39 40 41 42 43 43 42 42 41 40 40 40 39 39 39 39 39 38 37 36 36 36 37 36 37 38 37 36 35
5 2 4 7 7 5 5 8 12 12 9 8 7 9 8 4 3 4 2 3 5 3 4 4 4 6 6 7 13 17 15 14 14 12 14 19 22 21 20 19 18 17 16 16 15 16 17 17 20 28 32 33 34 33 33 36 37 38 39 40 42 42 41 41 41 41 40 40 40 40 39 40 40 39 38 36 35 36 37 37 36 37 37 37 36 35
6 3 4 6 6 5 6 7 13 15 10 8 7 8 10 6 5 6 5 3 4 3 4 5 4 7 7 7 12 16 15 15 16 14 13 17 22 22 21 20 19 18 17 17 16 17 17 16 18 24 29 29 29 30 32 34 35 36 38 40 41 41 41 41 42 42 41 41 40 41 41 40 40 40 39 37 36 36 36 36 36 36 36 36 37 37
7 3 4 6 5 9 14 12 10 14 13 10 7 6 9 7 6 8 7 5 6 5 4 4 3 6 7 7 10 14 15 16 17 15 13 16 20 21 21 20 20 19 19 19 18 17 16 15 18 22 26 28 29 30 32 33 34 36 38 38 38 38 40 42 43 43 42 41 40 41 40 39 38 38 38 38 37 37 37 36 37 36 35 35 36 37
8 3 3 6 7 9 13 11 9 10 12 10 7 6 8 10 9 8 6 5 6 7 5 3 3 7 8 5 7 12 16 16 16 13 14 16 17 19 21 20 19 19 19 19 17 15 14 14 15 17 20 23 27 29 32 33 34 35 35 35 36 38 40 40 41 41 41 40 40 40 39 38 37 37 37 38 38 38 38 38 37 36 36 35 35 36
6 4 4 6 5 4 6 5 5 6 8 8 8 10 11 14 12 6 4 5 5 8 8 5 4 7 7 5 4 8 14 14 11 11 14 17 17 18 19 18 18 18 17 17 16 14 14 13 14 15 15 20 26 29 32 34 33 33 33 34 36 36 38 38 38 38 39 39 39 38 38 39 38 38 39 39 39 39 39 38 37 37 37 36 35 35
4 3 2 3 3 3 5 4 2 3 3 5 10 15 14 13 14 7 4 5 5 7 7 6 6 8 8 8 9 4 10 12 10 10 12 17 19 19 17 15 16 16 16 17 16 15 15 15 15 16 16 20 26 29 31 33 32 32 32 34 35 35 36 37 37 37 38 38 37 37 38 39 40 40 40 40 40 39 39 38 38 37 38 38 37 36
3 4 4 6 7 6 7 10 10 8 7 9 11 16 15 13 14 10 5 5 6 5 6 8 9 9 8 8 9 4 6 9 8 10 11 14 18 19 18 16 15 15 15 17 16 15 16 16 16 17 17 20 26 29 30 31 31 32 32 33 34 35 36 36 36 37 37 37 37 37 39 40 41 41 41 41 41 40 39 39 39 39 39 40 39 38
2 4 7 9 11 12 15 19 19 14 11 13 13 15 18 14 14 12 7 7 7 6 5 9 10 10 8 7 8 3 6 8 8 10 12 13 16 17 17 18 19 17 16 17 17 17 18 17 17 17 16 19 24 27 28 30 31 32 33 33 34 35 35 36 36 37 37 37 37 38 39 41 41 41 41 41 41 41 40 40 40 40 40 40 40 41
2 4 7 9 16 20 19 19 17 14 13 13 13 15 21 17 16 14 9 8 9 8 8 9 9 11 8 7 9 7 5 8 8 9 11 13 14 16 17 19 20 19 18 18 18 18 18 18 17 17 17 18 22 24 26 28 31 32 32 33 34 35 36 37 37 38 38 38 38 39 40 40 40 40 40 39 39 40 41 41 41 40 40 40 41 41
2 4 7 12 18 20 18 14 11 10 9 9 10 11 21 20 17 15 10 8 9 8 9 9 9 11 9 7 8 7 4 4 5 4 8 13 14 15 17 19 19 19 18 17 17 17 18 18 18 18 17 16 19 22 24 26 29 32 32 33 35 35 36 37 37 37 37 37 39 40 40 39 39 39 38 39 39 40 41 41 40 40 40 40 41 41
2 4 9 11 12 13 12 11 11 12 10 9 9 5 15 20 18 15 11 8 7 7 7 8 9 9 6 2 2 1 3 6 7 5 6 12 14 16 18 19 19 19 18 17 16 14 14 14 15 16 16 16 19 23 25 26 29 32 32 33 34 35 36 36 36 36 36 37 38 38 37 38 38 37 38 38 39 39 40 40 40 39 40 40 40 40
3 4 7 8 7 8 9 13 16 16 13 7 6 8 6 15 14 11 10 7 4 5 4 6 6 7 4 3 7 7 8 8 8 6 5 7 12 16 18 17 16 17 17 17 15 13 12 13 14 16 16 17 21 26 27 28 29 30 31 32 33 34 34 35 35 35 36 36 36 36 37 37 37 37 37 37 38 38 39 39 39 39 39 39 40 39
4 4 5 5 5 7 9 15 16 12 7 3 6 12 7 5 7 3 3 4 4 1 4 5 6 6 4 7 10 9 9 9 7 5 5 6 8 11 13 13 15 16 16 16 15 14 14 14 13 15 16 18 23 28 30 31 31 31 32 33 33 33 33 34 34 34 35 36 36 36 37 37 37 37 37 37 38 38 37 37 39 39 39 39 39 38
6 5 5 3 3 7 13 16 12 3 3 2 5 15 14 6 16 16 10 11 14 10 4 4 4 5 5 9 14 12 8 8 7 7 6 6 7 8 8 7 8 9 9 10 12 13 13 11 10 12 16 21 26 29 31 31 31 32 33 33 33 34 33 33 33 33 34 35 35 36 37 37 37 37 37 37 37 37 37 38 39 39 39 38 38 38
8 6 4 3 3 6 10 9 3 4 2 5 4 14 17 10 14 19 18 18 19 17 14 10 3 7 5 9 16 15 12 12 13 13 12 10 9 11 12 10 8 8 7 6 7 6 6 7 7 9 12 18 22 23 25 27 27 28 29 30 32 32 33 32 32 32 33 34 35 36 36 37 37 37 37 37 37 38 38 39 38 38 38 37 37 38
9 6 3 3 4 4 5 4 3 6 4 7 8 14 18 15 12 13 17 18 18 16 14 12 8 7 8 12 14 14 15 16 16 15 13 12 12 13 13 12 10 11 10 8 9 8 6 7 8 9 11 15 17 19 21 23 24 24 26 28 30 30 31 31 30 31 32 33 34 36 36 36 36 36 36 37 37 38 38 38 38 38 38 37 36 37
10 7 3 3 3 2 4 4 3 3 6 7 9 13 13 10 11 8 7 10 15 17 14 12 11 7 5 9 10 12 17 18 15 11 11 12 12 13 14 13 12 13 12 11 12 12 13 15 15 14 15 15 14 14 16 20 23 24 24 26 28 28 30 30 30 30 31 32 34 35 36 37 36 36 36 36 37 37 38 38 38 38 37 37 36 37
11 7 2 3 3 4 4 4 4 3 3 5 11 17 15 10 12 10 1 7 13 17 15 12 11 10 7 3 1 8 17 17 11 6 8 10 10 12 15 14 13 14 13 12 13 14 17 20 20 20 20 19 15 10 8 13 20 23 24 25 27 28 28 28 29 30 31 32 34 35 36 37 37 37 37 36 37 37 37 38 38 37 37 38 38 38
10 6 3 3 4 4 4 3 3 1 1 7 16 20 20 17 14 8 3 7 11 15 16 13 12 12 10 7 4 9 15 12 6 4 6 8 10 11 13 14 14 14 14 15 15 15 17 21 23 24 24 22 18 14 9 6 10 16 20 23 25 25 26 27 30 32 31 32 33 35 37 38 38 38 38 37 38 38 38 38 38 38 38 38 39 38
6 5 4 4 4 5 4 3 2 1 2 10 17 18 20 20 13 2 7 5 8 12 13 12 13 13 11 9 9 13 12 8 5 4 5 7 11 12 12 13 13 13 14 16 18 19 21 24 24 22 21 20 19 15 11 7 5 7 10 14 18 21 24 28 30 31 32 32 32 34 37 38 38 39 38 38 38 37 38 38 37 37 37 37 37 36
2 3 4 4 4 5 4 4 2 1 2 10 17 19 20 16 5 6 7 1 5 9 10 11 12 12 12 12 11 11 9 7 6 7 7 9 12 12 12 13 14 16 17 18 21 22 22 22 22 21 20 20 20 18 14 9 5 4 3 4 9 14 17 20 24 27 30 31 32 33 35 36 38 39 39 39 38 37 37 37 36 36 36 35 35 34
2 2 2 3 3 3 4 4 2 1 3 11 17 18 15 7 4 6 3 2 5 7 8 10 12 11 11 13 12 9 9 10 10 11 11 11 11 12 13 13 14 16 19 21 23 23 20 19 19 21 22 22 21 19 16 11 7 3 2 1 3 6 8 10 15 21 26 29 31 32 33 35 36 37 37 38 37 35 35 35 35 35 35 34 33 32
1 1 1 1 2 2 3 2 2 1 5 13 15 12 10 8 4 2 3 3 5 7 8 9 12 11 11 11 11 11 11 11 12 11 11 11 11 12 12 13 13 13 14 17 20 21 20 17 16 17 19 20 21 20 18 15 11 7 4 4 6 7 7 9 12 16 22 26 28 30 31 33 34 34 34 35 35 35 33 33 33 33 33 33 31 30
4 3 1 2 2 2 0 2 3 1 3 8 8 6 7 6 4 4 4 4 6 7 7 7 10 11 11 10 10 11 11 11 11 10 10 11 11 11 11 12 11 11 11 13 15 18 17 14 12 13 17 19 19 19 20 18 15 12 9 8 9 9 7 10 12 15 20 24 26 27 28 30 31 32 32 32 33 33 32 32 32 31 32 32 30 28
4 3 1 2 3 2 1 1 2 3 4 1 4 5 5 6 6 6 5 5 7 7 6 7 9 11 11 10 10 10 10 10 10 10 10 10 10 10 10 10 10 10 11 12 15 17 16 13 11 12 15 17 18 17 18 19 17 15 14 12 10 10 7 7 13 17 20 23 24 25 26 27 28 30 30 31 32 32 32 31 30 29 29 29 28 27
4 4 3 3 4 4 2 2 4 6 3 5 7 6 6 6 6 6 5 5 6 7 7 8 8 9 10 10 10 9 9 9 9 9 10 10 10 10 10 9 10 12 11 10 12 16 17 16 14 14 14 16 18 17 16 18 17 16 16 14 10 9 8 5 11 17 20 22 23 24 24 24 25 27 27 29 31 32 32 32 30 27 26 27 27 25
4 5 5 3 3 4 3 2 7 9 6 9 8 6 7 8 5 4 5 5 5 6 7 8 8 8 10 10 9 9 9 9 9 8 8 8 8 9 10 9 10 11 12 11 11 14 17 15 12 12 13 14 16 16 15 15 15 15 15 14 10 7 7 4 8 15 18 20 21 22 23 23 24 24 25 26 29 30 30 30 29 26 26 26 25 23
4 7 6 4 4 5 4 3 9 7 3 7 7 3 5 7 6 5 4 4 6 7 6 6 7 7 8 9 8 8 9 9 9 8 7 7 7 7 7 8 8 9 13 16 14 14 15 13 10 10 11 11 12 13 13 12 12 13 14 14 11 7 5 3 5 11 15 18 19 20 21 22 23 23 23 22 22 21 21 22 24 25 26 26 25 23
6 6 5 5 6 6 4 5 10 8 3 6 7 5 4 6 6 6 6 6 7 7 5 5 5 6 7 8 7 7 8 8 8 7 7 7 6 6 6 7 8 10 12 14 14 13 12 11 10 9 9 8 9 10 10 10 10 11 13 13 11 7 4 3 3 6 11 14 16 17 19 20 22 23 23 20 16 14 12 13 17 20 23 25 26 26
5 4 5 7 6 5 5 7 8 5 5 5 5 7 7 6 4 5 6 7 8 7 6 5 5 6 7 7 6 6 6 6 6 6 6 6 6 7 7 7 9 11 13 16 18 17 14 11 10 9 7 7 9 10 10 10 10 10 11 11 10 6 5 5 4 4 7 10 12 14 16 18 19 21 22 21 19 17 13 9 9 14 17 20 22 23
4 5 6 6 7 9 11 9 5 2 5 7 6 6 8 8 6 3 1 3 6 8 7 6 7 7 7 7 7 6 6 5 5 6 6 6 7 8 9 10 9 10 14 18 19 17 14 10 9 8 5 6 9 10 9 9 10 10 10 10 9 5 5 7 6 6 7 10 12 14 17 18 20 21 22 23 22 22 20 17 13 9 9 12 14 17
Wind_Direction
180 195 218 217 216 209 214 216 203 223 242 235 224 225 240 237 239 241 237 230 179 183 211 205 218 201 165 174 174 169 173 171 173 176 179 182 179 179 178 181 184 186 189 186 185 184 183 183 182 182 183 183 184 185 185 186 188 189 188 187 188 191 191 191 192 194 195 195 196 200 202 203 205 205 204 206 211 214 211 208 209 213 216 215 208 208
180 212 227 219 211 205 208 213 206 220 243 249 239 235 243 238 241 243 241 234 184 186 215 207 217 203 170 175 171 166 172 176 178 179 183 184 181 181 180 181 184 187 185 180 184 185 184 184 182 182 184 182 182 184 186 186 187 189 190 189 188 188 190 191 191 192 193 193 193 195 197 200 202 203 202 203 208 215 214 211 212 214 214 213 209 207
198 227 228 210 194 200 199 204 209 219 234 245 246 243 247 241 258 264 256 245 199 195 213 204 212 202 173 176 170 167 174 180 183 184 184 183 180 181 181 181 182 182 182 180 183 185 186 185 181 180 183 183 183 184 186 187 187 188 190 191 190 189 190 191 192 192 193 193 193 194 196 198 200 203 205 204 207 214 216 213 214 215 214 213 210 207
203 229 218 192 186 201 202 200 203 216 228 235 240 235 244 240 242 260 259 256 224 219 205 195 206 201 172 175 173 174 179 182 187 188 185 181 179 179 181 181 180 180 182 184 185 185 185 185 183 181 181 183 183 183 184 185 186 187 189 191 192 191 191 192 192 194 194 194 194 196 197 198 200 203 204 203 206 213 215 213 215 216 214 213 212 209
219 222 173 182 201 202 204 204 198 207 220 229 235 229 237 239 232 239 253 290 300 267 218 183 198 212 171 171 181 183 183 187 191 190 188 186 182 177 178 180 179 181 183 184 185 185 184 185 186 184 181 181 183 183 184 185 185 187 188 190 191 192 191 192 193 193 193 192 192 193 192 192 195 198 199 203 208 212 213 212 213 215 214 213 212 211
232 213 158 183 204 204 209 211 199 199 206 224 233 229 231 239 242 245 254 285 308 292 249 183 185 236 186 175 183 185 186 193 194 191 189 188 183 177 176 179 182 183 184 184 185 184 184 185 185 185 182 181 183 184 185 185 186 187 188 189 190 191 192 192 192 192 192 190 189 188 184 183 185 190 196 204 208 210 211 211 212 213 214 213 212 212
226 208 175 187 196 203 212 217 207 198 196 219 225 228 231 237 249 254 256 251 234 262 260 201 185 214 214 185 184 184 188 192 192 195 193 185 179 180 180 180 182 183 184 186 185 183 184 184 183 184 183 182 185 186 186 186 187 187 188 188 189 190 191 192 191 191 190 190 189 189 189 188 189 192 198 205 207 207 209 212 213 213 212 213 213 213
200 199 198 197 196 202 210 215 208 197 202 217 210 221 233 237 245 251 253 243 240 268 290 253 202 196 208 196 187 185 189 190 190 197 195 185 181 183 184 183 182 183 183 184 185 183 184 184 184 185 185 185 185 185 185 186 186 187 187 188 189 190 190 191 190 191 191 190 190 191 193 193 195 198 201 204 206 206 209 213 214 213 212 211 212 213
187 200 204 204 202 203 209 210 202 200 216 218 187 206 228 239 246 251 251 251 262 287 294 276 223 211 228 206 186 185 188 188 191 195 192 187 187 186 186 185 184 185 184 184 184 184 185 186 186 186 186 186 184 183 185 186 187 187 187 187 189 189 190 190 190 191 192 193 193 193 194 196 199 201 202 203 205 205 209 214 214 214 212 211 211 213
187 200 199 208 215 208 210 211 197 201 218 216 200 210 219 232 245 248 239 243 255 256 258 252 206 221 261 226 185 182 186 188 193 196 190 188 189 188 188 187 185 185 186 187 186 185 186 186 187 186 186 185 183 183 185 186 186 187 187 186 187 189 189 190 190 191 193 194 195 195 197 198 199 200 200 200 202 204 208 213 214 213 212 209 209 212
224 202 192 207 221 209 199 207 202 204 209 202 209 230 235 235 247 251 228 215 231 240 248 242 205 209 263 256 201 183 185 187 189 194 192 191 192 192 190 185 184 185 186 188 188 188 187 186 185 185 185 185 183 183 183 184 186 186 187 186 187 189 189 190 191 192 193 195 197 199 199 200 199 198 197 196 199 202 205 209 211 211 211 210 210 212
236 228 202 203 214 205 192 204 204 204 205 198 196 214 238 259 270 265 225 179 210 234 247 228 195 203 239 257 232 203 195 188 184 187 189 193 195 194 192 186 185 186 184 185 187 188 187 183 182 183 185 186 182 181 181 183 185 185 187 188 188 189 190 191 192 193 195 196 198 201 201 202 200 198 197 196 199 200 202 206 208 208 209 210 211 212
227 231 228 214 211 203 200 206 202 202 202 201 198 191 206 226 237 240 222 201 208 229 245 205 176 209 232 236 233 225 214 193 186 187 185 190 194 192 192 189 186 185 182 185 186 187 187 185 183 182 184 184 181 181 181 182 183 184 186 187 188 190 191 192 193 195 196 197 199 202 203 203 202 200 199 199 200 200 202 204 205 206 207 209 210 211
226 231 228 226 220 200 202 204 190 201 197 194 201 186 185 198 207 222 231 233 204 221 241 199 175 225 238 240 232 222 219 192 187 190 184 186 191 190 192 188 183 184 184 186 187 185 187 188 186 183 183 183 182 182 182 182 183 183 185 187 188 190 192 193 194 195 197 199 201 202 203 204 203 202 202 201 201 201 202 203 204 207 209 210 212 212
224 234 220 221 218 178 203 208 182 183 191 200 201 185 192 196 191 200 206 209 199 225 246 201 188 204 188 226 228 213 220 189 177 190 188 189 191 188 189 184 180 184 185 187 187 186 187 187 187 185 185 185 183 182 182 182 183 183 185 187 188 190 192 193 194 195 197 200 202 203 203 204 204 204 204 204 204 203 203 204 205 208 211 213 216 217
226 238 211 212 216 189 206 210 180 173 189 202 195 190 209 195 165 179 201 189 156 173 239 212 208 203 186 245 252 221 244 202 170 180 188 195 196 186 183 183 182 185 185 186 188 187 187 187 186 186 186 187 185 183 183 183 184 185 186 188 190 190 191 193 194 196 198 200 202 203 204 205 205 205 206 206 206 205 205 205 206 208 212 215 218 219
234 237 204 198 215 215 214 205 187 184 180 187 196 203 203 168 151 189 246 243 125 163 237 234 238 276 268 263 265 235 254 234 170 174 183 192 192 183 182 186 188 186 184 186 189 189 187 185 186 187 187 187 185 184 185 186 186 186 188 188 190 191 191 193 195 196 199 200 201 203 204 205 206 206 207 207 208 207 206 206 207 209 212 215 218 219
327 266 240 215 214 215 214 212 207 194 165 165 200 195 152 129 162 174 209 270 156 184 254 251 233 259 233 244 261 225 227 245 192 175 182 188 184 181 186 190 190 189 188 189 189 188 186 185 186 187 188 188 187 187 188 188 187 187 188 189 190 192 193 194 195 197 199 200 201 204 205 206 207 208 209 209 209 208 207 207 208 209 212 215 217 218
342 303 266 245 226 213 204 208 221 207 188 185 189 169 146 170 198 177 179 206 186 188 263 270 236 225 205 227 265 223 216 234 217 179 180 184 181 183 188 190 192 191 189 189 187 187 186 187 188 187 189 189 189 190 190 188 187 187 189 191 192 194 195 196 197 197 199 200 202 204 206 208 209 210 210 211 210 209 208 209 209 210 212 214 216 217
327 317 278 267 256 235 200 196 215 215 202 188 165 163 173 186 184 174 179 175 163 184 219 247 243 235 228 216 225 228 219 220 214 184 178 183 182 185 188 190 193 191 189 189 187 186 187 189 189 188 189 190 190 190 188 186 186 188 189 191 193 195 196 197 197 198 199 200 202 204 206 208 209 211 211 211 211 210 210 211 210 211 213 214 215 216
334 356 294 294 310 293 218 196 207 210 204 186 170 178 185 171 147 173 212 167 147 160 183 194 233 246 243 216 219 227 221 217 213 191 181 185 182 184 188 189 190 188 189 190 186 186 188 189 189 189 190 192 191 189 186 186 188 189 190 191 193 194 195 196 198 199 200 201 202 204 206 207 209 210 212 212 212 212 212 212 212 213 213 213 214 215
344 357 296 296 328 299 255 234 212 206 205 191 176 184 187 169 142 178 229 225 171 163 168 176 222 254 245 216 217 224 218 217 216 197 181 183 182 183 188 189 187 186 187 188 187 187 188 187 187 188 190 190 190 189 188 189 189 190 191 193 194 194 194 196 197 199 200 201 203 205 206 207 208 210 211 212 213 214 214 214 214 214 214 213 214 214
317 303 267 271 281 264 265 273 241 213 209 197 181 182 187 175 156 181 211 209 190 203 197 172 215 266 255 207 203 221 220 216 215 201 177 176 181 184 189 190 185 184 186 186 187 187 186 186 185 186 188 188 189 191 191 191 191 192 194 194 193 194 195 197 198 199 200 201 203 205 206 207 208 209 210 211 213 215 215 215 215 214 214 214 215 215
324 339 310 292 287 269 267 278 276 237 210 200 196 178 184 192 182 179 186 173 184 205 207 206 244 269 270 224 200 221 225 217 211 195 170 169 180 185 189 190 185 184 187 185 184 185 183 182 182 184 187 187 188 190 192 194 195 195 195 193 193 195 197 197 198 199 200 201 203 204 205 207 208 209 210 211 213 215 216 216 216 215 215 215 215 216
333 348 349 324 310 285 268 273 293 263 216 206 205 190 193 196 182 155 143 157 194 208 192 187 230 253 269 290 284 233 216 209 199 178 164 167 179 188 189 189 184 181 185 183 179 179 176 175 180 185 188 187 187 190 193 196 197 196 195 194 194 196 197 197 198 199 200 201 202 203 204 206 207 208 210 212 213 215 216 216 216 216 216 216 216 217
306 293 299 309 286 248 238 227 256 302 277 244 211 196 194 188 178 164 131 156 204 215 192 188 223 259 284 317 322 268 188 184 173 160 164 170 176 184 186 186 184 180 179 179 177 176 176 178 183 186 186 186 187 189 193 196 196 196 196 195 196 196 197 197 198 198 200 201 202 203 204 205 207 208 210 212 213 215 216 216 217 217 217 217 217 217
281 279 261 249 257 266 273 274 285 306 305 282 240 203 188 181 181 174 147 170 188 180 193 210 220 250 282 302 310 299 158 159 151 146 159 171 175 178 179 181 184 180 175 176 177 178 179 182 184 185 185 187 188 189 191 193 194 195 196 196 196 197 196 196 197 197 199 201 202 204 205 206 208 209 210 211 213 214 215 216 217 217 217 218 217 217
291 300 279 261 272 281 282 280 282 285 275 276 268 218 190 181 181 178 183 193 163 145 207 234 222 227 255 271 272 253 143 138 140 148 160 171 174 175 176 179 182 180 177 178 179 180 182 184 185 184 186 187 188 188 188 190 192 194 196 196 196 196 196 196 195 196 198 200 202 205 207 208 209 210 211 212 213 214 215 216 217 217 217 218 217 218
322 285 285 298 304 296 286 277 272 266 251 262 273 224 193 184 186 187 195 192 158 156 210 225 215 215 230 247 250 240 183 156 151 158 162 166 172 173 173 178 182 181 179 179 181 182 184 185 183 183 186 187 186 186 185 187 191 194 195 196 196 196 196 196 195 196 198 199 202 205 207 209 210 211 212 212 213 214 215 216 216 216 217 218 218 218
328 274 301 320 311 296 288 283 284 290 271 274 290 229 191 189 195 188 184 190 177 184 202 194 197 216 224 222 230 238 213 153 118 129 150 156 165 169 171 177 182 182 181 181 184 188 189 186 184 183 184 184 185 185 184 186 190 192 194 195 195 196 197 196 195 196 198 200 203 206 207 208 209 211 211 212 213 214 215 216 217 216 217 217 218 219
336 302 315 324 312 291 292 311 331 333 305 284 312 281 195 192 199 192 182 186 194 206 197 165 180 225 254 230 179 127 80 84 75 79 140 159 164 166 171 177 180 181 182 183 185 189 189 186 183 182 182 184 186 186 185 187 190 192 194 195 195 196 196 195 196 197 199 201 204 206 207 208 209 210 211 212 213 214 215 216 216 217 217 218 218 219
316 304 311 326 319 288 306 335 335 324 308 289 344 345 222 192 192 198 182 159 182 212 167 130 171 230 262 79 83 72 71 80 84 83 103 150 165 169 171 174 176 179 182 184 182 181 182 183 182 182 185 187 187 187 187 187 188 191 194 195 195 195 195 196 197 198 200 203 204 205 206 207 209 210 212 212 213 214 216 216 217 217 218 218 219 219
284 293 312 331 321 284 306 331 322 315 332 3 20 0 321 193 133 119 145 81 19 292 151 161 200 218 191 121 94 74 66 68 64 61 83 121 147 161 165 165 171 178 180 180 178 177 181 183 183 184 186 186 187 188 190 189 189 192 194 194 194 195 195 196 197 199 201 204 204 205 207 207 209 210 211 212 213 214 215 216 217 217 218 219 219 219
281 289 299 313 307 290 309 323 314 313 58 26 15 14 2 52 89 78 58 27 12 8 349 259 204 164 157 122 103 90 73 67 59 41 46 83 105 108 105 113 142 157 162 167 171 177 181 179 177 179 184 187 189 190 190 190 191 193 193 192 193 194 195 197 198 199 201 203 204 205 207 207 208 210 211 212 213 213 214 215 217 218 218 219 219 219
280 281 285 284 258 280 310 327 290 187 212 283 350 24 12 24 73 70 54 30 13 5 351 336 49 106 113 107 104 102 93 81 69 52 41 49 76 89 82 70 74 85 89 104 117 128 146 151 154 165 175 183 186 186 187 190 192 192 191 191 192 194 197 199 199 201 202 203 204 205 205 206 207 208 210 211 211 211 213 215 216 217 218 219 219 220
264 268 279 278 258 279 326 333 209 205 275 321 3 16 7 360 8 35 50 32 7 3 359 353 23 76 104 104 101 104 99 83 65 51 40 44 59 76 83 78 73 75 76 80 82 81 87 100 114 132 150 167 175 179 184 189 189 188 189 192 193 196 199 201 202 203 203 202 203 204 205 205 206 207 208 209 209 210 212 214 215 216 217 217 219 222
244 254 282 279 267 336 342 300 276 295 324 346 1 351 347 344 326 332 51 38 5 2 2 3 17 32 83 105 106 105 93 79 65 46 30 38 55 69 77 79 77 76 74 74 75 73 72 73 78 91 110 127 142 161 179 187 187 187 189 192 196 199 201 203 205 205 204 203 203 203 204 204 205 206 207 208 208 209 211 213 215 216 215 216 218 221
235 238 281 300 294 348 347 312 327 355 330 337 338 325 319 317 302 293 37 45 6 358 356 3 21 21 11 7 132 104 84 72 64 41 19 28 47 63 71 71 70 72 71 66 66 65 64 66 68 72 80 85 83 90 134 176 187 190 190 194 198 201 202 205 208 208 206 205 204 204 204 205 205 206 206 207 208 209 211 213 214 215 215 215 217 220
238 242 260 275 277 309 327 312 316 324 289 328 328 321 320 321 304 278 93 44 357 349 353 360 17 26 18 349 351 76 81 77 69 36 18 33 46 56 68 68 64 65 64 60 61 60 58 60 61 60 60 58 51 49 67 117 168 185 192 198 200 200 204 208 210 211 209 207 206 205 205 205 205 206 207 207 208 210 211 212 214 215 215 216 217 220
248 263 257 253 262 284 292 285 286 247 304 319 320 317 316 313 302 265 92 47 337 338 351 1 17 27 22 14 36 61 72 85 91 57 30 47 54 55 61 64 61 61 58 52 51 53 55 56 56 53 49 43 37 37 45 60 100 150 179 196 201 204 210 213 213 213 212 210 208 207 206 206 205 206 207 208 209 210 211 212 213 214 215 216 218 220
223 263 261 253 263 284 285 280 279 204 306 318 318 315 311 307 318 72 77 39 311 339 356 9 22 29 28 34 50 58 55 59 71 62 45 48 54 54 56 59 58 57 55 49 44 44 47 49 51 50 44 37 34 33 31 33 50 82 114 175 202 214 222 223 221 218 215 212 210 208 207 207 207 206 207 209 210 211 211 212 212 213 214 215 217 219
173 245 261 244 252 265 260 271 286 220 325 327 321 317 322 339 68 68 46 282 318 353 10 20 25 27 33 45 54 57 53 50 48 45 39 39 47 53 54 54 53 50 48 46 42 39 38 40 46 48 43 37 34 30 24 22 25 19 355 293 268 263 253 242 232 225 219 214 211 209 208 208 208 207 207 208 209 209 209 211 212 212 213 214 214 216
31 316 296 285 288 265 241 287 7 41 328 331 331 337 3 34 65 30 350 333 353 11 22 28 30 26 28 44 54 51 49 46 43 43 38 33 38 45 49 54 56 50 46 44 41 39 37 37 41 45 45 42 38 33 28 24 22 19 10 351 337 316 279 252 239 230 223 218 213 211 209 208 208 207 206 206 207 207 208 209 210 211 212 212 212 214
32 28 344 320 330 329 331 15 26 90 289 326 348 12 20 31 55 34 5 349 4 23 27 28 32 29 26 35 44 44 45 41 36 38 40 37 36 37 41 48 53 53 52 49 46 43 41 41 44 48 47 43 38 34 31 27 25 21 18 7 354 341 296 250 234 226 222 219 216 213 210 208 207 206 205 204 204 204 205 207 208 208 209 209 210 211
11 5 305 262 273 282 252 252 295 253 230 296 35 32 11 23 44 41 23 7 7 14 22 29 31 27 26 31 34 36 41 38 30 29 32 35 35 34 37 42 45 47 48 47 47 45 42 46 54 54 48 40 33 26 22 21 20 13 4 354 347 347 331 259 228 219 216 216 215 213 210 208 206 204 203 202 200 201 203 205 205 205 205 205 206 208
315 331 325 276 270 286 262 243 311 319 349 57 56 38 21 22 25 28 34 27 9 6 12 21 28 26 23 27 33 34 28 24 26 28 26 26 26 25 27 32 35 38 39 40 44 44 43 47 52 49 40 32 26 20 13 12 12 6 357 348 339 342 342 289 227 215 211 211 211 210 207 204 202 201 200 199 199 201 203 203 203 201 201 202 204 207
315 357 351 304 296 316 298 340 353 348 18 57 56 40 29 22 7 19 38 24 10 21 17 6 13 26 26 23 28 32 26 19 20 23 23 25 23 19 19 19 20 26 27 22 30 40 43 45 47 43 36 26 18 14 10 6 2 357 352 346 336 330 337 309 231 214 208 206 206 205 202 199 196 195 194 195 198 200 203 203 201 199 199 200 202 205
332 352 345 318 321 314 284 332 356 344 30 72 61 39 37 30 9 8 27 20 18 28 21 1 3 19 28 25 21 23 25 21 19 18 19 21 16 10 15 15 11 17 20 18 23 36 39 37 40 43 38 25 11 7 7 3 355 349 347 345 335 317 316 311 236 216 210 206 202 199 197 195 191 187 186 188 191 194 197 199 199 200 203 204 205 204
306 321 337 342 331 304 283 355 4 347 347 47 42 22 24 33 22 5 354 356 12 17 12 7 10 19 30 28 22 24 24 17 17 18 13 11 9 4 5 7 6 9 15 16 19 26 33 38 40 35 27 17 3 356 359 360 352 344 344 344 334 310 278 266 231 209 208 206 200 195 193 190 186 181 175 171 166 164 170 187 197 201 205 209 211 211
316 319 347 351 330 297 306 347 2 344 311 326 357 2 354 352 11 17 352 344 351 350 349 9 22 25 29 23 20 29 23 4 9 19 10 360 358 356 358 6 6 4 5 8 10 12 19 29 24 10 3 360 352 347 345 343 339 339 342 341 329 299 245 223 199 175 181 184 182 183 181 175 172 171 166 160 153 144 134 141 178 196 203 207 209 210
336 327 335 328 296 282 291 301 308 292 281 287 307 334 335 325 329 354 359 336 334 330 340 15 28 21 14 4 5 20 17 354 1 18 11 355 348 349 354 1 3 2 1 4 5 1 358 3 7 2 350 339 339 341 341 337 333 330 333 334 325 292 226 202 185 164 157 160 161 163 164 162 159 159 157 154 151 144 128 111 107 127 167 189 196 200